[[{"header":{"parameterUnit":"m.s-1","parameterCategory":1,"la1":30.2991,"la2":30.254,"lo1":-89.0895,"lo2":-89.0444,"dy":0.0017,"dx":0.0017,"nx":28,"ny":28,"refTime":"2023-11-08T03:00:00:Z","depth":0,"parameterNumber":2,"parameterNumberName":"U-component_of_WINDS"},"data":[0,0,0,0,0,0,0,0,0,0,0,0,0,0,0,0,0,0,0,0,0,0,0,0,0,0,0,0,0,0,0,0,0,0,0,0,0,0,0,0,0,0,0,0,0,0,0,0,0,0,0,0,0,0,0,0,0,0,-1.775,-1.775,0,-1.7732,-1.7732,-1.7731,-1.7678,-1.7676,-1.7675,-1.7674,-1.7656,-1.7657,-1.7657,0,0,0,0,0,0,0,0,0,0,0,0,0,-1.7741,-1.7741,-1.775,-1.775,-1.775,-1.7732,-1.7732,-1.7731,-1.7678,-1.7676,-1.7675,-1.7673,-1.7656,-1.7657,-1.7657,0,0,0,0,0,0,0,0,0,0,0,0,0,-1.7736,-1.7741,-1.775,-1.7721,-1.7718,-1.7732,-1.7732,-1.7731,-1.7678,-1.7676,-1.7674,-1.7673,-1.7656,-1.7657,-1.7658,-1.7699,0,0,-1.766,-1.7661,0,0,0,0,0,0,0,0,-1.7736,-1.7736,-1.7725,-1.7723,-1.772,-1.7705,-1.7722,-1.7721,-1.7678,-1.7693,-1.7674,-1.7672,-1.7674,-1.7673,-1.7674,-1.7698,-1.7697,-1.7661,-1.7661,-1.7661,-1.7662,0,0,0,0,0,0,0,-1.7737,-1.7737,-1.7743,-1.7725,-1.7722,-1.7709,-1.7707,-1.7721,-1.7694,-1.7692,-1.7688,-1.7686,-1.7672,-1.7673,-1.7673,-1.7697,-1.766,-1.7661,-1.7662,-1.7662,-1.7757,-1.7759,0,0,0,0,0,0,-1.7741,-1.7738,-1.7743,-1.7742,-1.7724,-1.7711,-1.7708,-1.7712,-1.7693,-1.7689,-1.7688,-1.7684,-1.7672,-1.7672,-1.7672,-1.772,-1.7661,-1.7662,-1.7663,-1.7755,-1.7757,-1.7759,0,0,0,0,0,0,-1.7741,-1.7742,-1.7744,-1.7739,-1.7738,-1.7713,-1.7718,-1.7712,-1.7713,-1.769,-1.7685,-1.7694,-1.7671,-1.7671,-1.7693,-1.7719,-1.7663,-1.7664,-1.7753,-1.7756,-1.7758,-1.7816,0,0,0,0,0,0,-1.7741,-1.7742,-1.7757,-1.774,-1.7739,-1.7765,-1.7719,-1.7713,-1.7715,-1.7709,-1.7695,-1.769,-1.7669,-1.7692,-1.7694,-1.7719,-1.7664,-1.775,-1.7754,-1.7757,-1.7812,-1.7821,-1.7828,0,0,0,0,0,-1.7741,-1.7774,-1.7758,-1.7759,-1.7756,-1.7766,-1.7766,-1.774,-1.7717,-1.7732,-1.7718,-1.7691,-1.7716,-1.7695,-1.7697,-1.7722,-1.7748,-1.7753,-1.7757,-1.7808,-1.7819,-1.7828,0,0,0,0,0,0,-1.7794,-1.7771,-1.7753,-1.7781,-1.7776,-1.7757,-1.7775,-1.7753,-1.7754,-1.7749,-1.7718,-1.7716,-1.7743,-1.7735,-1.7711,-1.7763,-1.7728,-1.7733,-1.7766,-1.7776,-1.7784,-1.7785,-1.7665,0,0,0,0,0,-1.7809,-1.7819,-1.7798,-1.7825,-1.7823,-1.78,-1.7803,-1.7785,-1.7778,-1.7776,-1.7763,-1.7759,-1.7766,-1.7771,-1.7776,-1.7811,-1.7808,-1.783,-1.7839,-1.7845,-1.785,-1.7869,-1.7879,-1.7774,-1.7774,-1.7774,0,0,-1.784,-1.7829,-1.7836,-1.7835,-1.7829,-1.784,-1.7798,-1.7811,-1.782,-1.7778,-1.7798,-1.779,-1.7783,-1.7812,-1.7824,-1.7806,-1.7879,-1.7851,-1.7857,-1.7857,-1.7875,-1.7885,-1.7894,-1.7777,-1.7776,-1.7776,0,0,-1.7902,-1.7894,-1.7916,-1.7911,-1.7903,-1.7888,-1.7894,-1.7879,-1.7871,-1.7891,-1.7861,-1.7871,-1.7883,-1.788,-1.788,-1.7945,-1.7921,-1.7948,-1.799,-1.801,-1.8018,-1.8025,-1.8049,-1.8057,-1.7953,-1.7953,-1.7953,0,-1.7941,-1.7956,-1.793,-1.7946,-1.7947,-1.7911,-1.7934,-1.7931,-1.7925,-1.7927,-1.7907,-1.7924,-1.7916,-1.7945,-1.7961,-1.7963,-1.7969,-1.7948,-1.8019,-1.8026,-1.8032,-1.8054,-1.8063,-1.7956,-1.7956,-1.7955,-1.7955,0,-1.8005,-1.8017,-1.8036,-1.8031,-1.8035,-1.8054,-1.8032,-1.8039,-1.8022,-1.8009,-1.8031,-1.8022,-1.8025,-1.8031,-1.8014,-1.8059,-1.8048,-1.8024,-1.7989,-1.8046,-1.8066,-1.8074,-1.7961,-1.796,-1.7959,-1.7958,0,0,-1.8096,-1.808,-1.8087,-1.8086,-1.8076,-1.8084,-1.8104,-1.8107,-1.8114,-1.8113,-1.8128,-1.8141,-1.812,-1.812,-1.8103,-1.812,-1.8173,-1.8094,-1.8094,-1.8109,-1.8223,-1.824,-1.825,-1.8158,-1.816,-1.8161,-1.8224,0,-1.8155,-1.8185,-1.8164,-1.8198,-1.8209,-1.8177,-1.8193,-1.819,-1.818,-1.8189,-1.8178,-1.8187,-1.8158,-1.8159,-1.8175,-1.8163,-1.8195,-1.8159,-1.8172,-1.8173,-1.8174,-1.8261,-1.8278,-1.8338,-1.8231,-1.8233,-1.8234,0,-1.8226,-1.8228,-1.8263,-1.8253,-1.8257,-1.8272,-1.8275,-1.8284,-1.828,-1.8272,-1.8274,-1.8253,-1.8272,-1.8239,-1.8266,-1.8241,-1.8247,-1.8242,-1.8244,-1.8243,-1.8206,-1.8262,-1.8356,-1.8365,-1.8246,-1.8245,-1.8244,0,-1.8289,-1.8301,-1.8324,-1.8324,-1.8312,-1.8324,-1.832,-1.8315,-1.8319,-1.8323,-1.8326,-1.8331,-1.8334,-1.834,-1.8321,-1.8299,-1.8351,-1.8316,-1.8345,-1.8346,-1.8356,-1.8355,-1.8452,-1.8361,-1.8361,-1.8361,-1.8361,0,-1.8355,-1.8378,-1.8352,-1.8366,-1.8392,-1.8369,-1.8395,-1.8388,-1.8384,-1.8397,-1.8371,-1.8384,-1.8359,-1.837,-1.8357,-1.8382,-1.8383,-1.8378,-1.8373,-1.8379,-1.838,-1.8381,-1.8376,-1.8363,-1.8363,-1.8362,-1.8362,0,-1.8428,-1.8412,-1.8435,-1.8424,-1.8422,-1.8441,-1.8432,-1.8445,-1.8435,-1.8452,-1.8454,-1.8438,-1.845,-1.8433,-1.8443,-1.8434,-1.8469,-1.8459,-1.8469,-1.8466,-1.8496,-1.8494,-1.8596,-1.8608,-1.8511,-1.8512,-1.8512,0,-1.8471,-1.8488,-1.8479,-1.8486,-1.8484,-1.8495,-1.85,-1.8479,-1.8486,-1.8485,-1.8499,-1.8509,-1.8515,-1.8537,-1.8526,-1.8535,-1.8524,-1.856,-1.8525,-1.8531,-1.8524,-1.8523,-1.8525,-1.8566,-1.8567,-1.8568,-1.8569,0,-1.8549,-1.854,-1.8548,-1.8554,-1.8561,-1.8564,-1.8566,-1.8574,-1.8552,-1.8561,-1.8573,-1.8579,-1.859,-1.8601,-1.8607,-1.8604,-1.8583,-1.858,-1.8587,-1.8593,-1.8598,-1.8596,-1.8488,-1.8577,-1.8577,-1.8576,-1.8576,-1.8575,-1.8607,-1.8622,-1.8618,-1.8628,-1.8628,-1.8631,-1.8643,-1.8635,-1.8645,-1.8652,-1.864,-1.8656,-1.8655,-1.8661,-1.8661,-1.8674,-1.8659,-1.8669,-1.8672,-1.8674,-1.8679,-1.8598,-1.8676,-1.8675,-1.8675,-1.8675,-1.8675,0,-1.8683,-1.868,-1.869,-1.8694,-1.8703,-1.8684,-1.8685,-1.8694,-1.8708,-1.8709,-1.8717,-1.8732,-1.8743,-1.8735,-1.8745,-1.8757,-1.8748,-1.876,-1.8758,-1.8758,-1.8692,-1.8685,-1.8768,-1.8768,-1.8767,-1.8767,-1.8767,-1.8767,-1.8724,-1.8747,-1.8739,-1.8763,-1.876,-1.8775,-1.8778,-1.8782,-1.8782,-1.8801,-1.881,-1.8805,-1.8802,-1.8812,-1.8822,-1.882,-1.8825,-1.884,-1.8834,-1.8772,-1.8763,-1.8754,-1.8747,-1.8842,-1.8842,-1.8899,-1.89,-1.89]},{"header":{"parameterUnit":"m.s-1","parameterCategory":1,"la1":30.2991,"la2":30.254,"lo1":-89.0895,"lo2":-89.0444,"dy":0.0017,"dx":0.0017,"nx":28,"ny":28,"refTime":"2023-11-08T03:00:00:Z","depth":0,"parameterNumber":3,"parameterNumberName":"V-component_of_WINDS"},"data":[0,0,0,0,0,0,0,0,0,0,0,0,0,0,0,0,0,0,0,0,0,0,0,0,0,0,0,0,0,0,0,0,0,0,0,0,0,0,0,0,0,0,0,0,0,0,0,0,0,0,0,0,0,0,0,0,0,0,2.6035,2.6035,0,2.6015,2.6015,2.6015,2.6059,2.6061,2.6062,2.6063,2.6037,2.6035,2.6033,0,0,0,0,0,0,0,0,0,0,0,0,0,2.6109,2.6107,2.6035,2.6035,2.6035,2.6015,2.6015,2.6015,2.6059,2.6061,2.6062,2.6064,2.6038,2.6035,2.6033,0,0,0,0,0,0,0,0,0,0,0,0,0,2.6081,2.6107,2.6035,2.6055,2.6056,2.6015,2.6015,2.6015,2.6059,2.6061,2.6063,2.6065,2.6039,2.6036,2.6033,2.597,0,0,2.6023,2.6022,0,0,0,0,0,0,0,0,2.6083,2.6079,2.6052,2.6053,2.6055,2.6042,2.6031,2.6,2.6058,2.6057,2.6063,2.6066,2.6037,2.6034,2.6025,2.5969,2.5968,2.6023,2.6021,2.602,2.6019,0,0,0,0,0,0,0,2.6085,2.608,2.6027,2.6052,2.6053,2.6063,2.6062,2.6026,2.6035,2.6058,2.6061,2.6058,2.6038,2.6028,2.6025,2.5968,2.6023,2.602,2.6018,2.6017,2.5862,2.586,0,0,0,0,0,0,2.6085,2.6081,2.6028,2.6027,2.6075,2.606,2.6059,2.6044,2.6036,2.6036,2.6056,2.606,2.6032,2.6028,2.6024,2.5952,2.602,2.6017,2.6015,2.5864,2.5862,2.5859,0,0,0,0,0,0,2.6086,2.608,2.6029,2.6055,2.6049,2.6057,2.604,2.6042,2.6033,2.6035,2.6036,2.6045,2.6034,2.6028,2.5984,2.5952,2.6016,2.6013,2.5867,2.5864,2.5861,2.5807,0,0,0,0,0,0,2.6088,2.608,2.6057,2.6054,2.6048,2.599,2.6038,2.604,2.6028,2.6033,2.6024,2.6025,2.6035,2.5989,2.5981,2.5949,2.601,2.587,2.5866,2.5862,2.5811,2.5802,2.5794,0,0,0,0,0,2.6091,2.604,2.6055,2.6049,2.6019,2.5988,2.5984,2.5999,2.6025,2.6002,2.6004,2.6025,2.5957,2.5984,2.5976,2.5942,2.5872,2.5867,2.5862,2.5815,2.5804,2.5794,0,0,0,0,0,0,2.6036,2.604,2.6057,2.6005,2.5996,2.5996,2.5966,2.5985,2.5967,2.5972,2.599,2.5987,2.594,2.5937,2.5967,2.5883,2.5919,2.5912,2.5886,2.5875,2.5867,2.5868,2.6008,0,0,0,0,0,2.6019,2.5995,2.5999,2.5952,2.5948,2.5958,2.5945,2.5957,2.5948,2.5944,2.5942,2.5931,2.5908,2.5891,2.587,2.5812,2.5811,2.5785,2.5776,2.5769,2.5762,2.5733,2.5722,2.5842,2.5842,2.5843,0,0,2.5981,2.598,2.5963,2.5942,2.5936,2.591,2.5954,2.5924,2.5904,2.5938,2.5898,2.5896,2.5885,2.5835,2.5812,2.583,2.5729,2.5762,2.5756,2.5754,2.5727,2.5715,2.5705,2.5839,2.584,2.584,0,0,2.5899,2.5896,2.5859,2.5853,2.5846,2.5854,2.5845,2.5842,2.5844,2.5804,2.5829,2.5806,2.5765,2.5757,2.5747,2.5667,2.5686,2.5659,2.5612,2.5584,2.5574,2.5566,2.5538,2.5527,2.5653,2.5652,2.5652,0,2.5853,2.5816,2.5836,2.5805,2.5795,2.5828,2.579,2.5783,2.5768,2.576,2.5781,2.5733,2.5727,2.5676,2.5657,2.5648,2.5638,2.5659,2.5574,2.5566,2.5559,2.5532,2.5521,2.5649,2.565,2.565,2.565,0,2.576,2.5734,2.5704,2.5692,2.5679,2.5644,2.5658,2.5642,2.5657,2.5662,2.5622,2.5618,2.5597,2.5586,2.5598,2.5537,2.5549,2.5572,2.5608,2.5544,2.5519,2.5509,2.5645,2.5646,2.5647,2.5647,0,0,2.564,2.5643,2.5632,2.5628,2.5624,2.5604,2.5571,2.5553,2.554,2.5529,2.5502,2.5468,2.5491,2.548,2.5492,2.5467,2.5406,2.5494,2.5494,2.5478,2.5339,2.5322,2.5309,2.5419,2.5417,2.5416,2.534,0,2.556,2.5507,2.5525,2.547,2.5447,2.548,2.5452,2.5446,2.5451,2.5431,2.5436,2.5413,2.5444,2.5438,2.5415,2.5418,2.5378,2.5424,2.5394,2.5392,2.5395,2.5296,2.5277,2.5206,2.5331,2.5329,2.5328,0,2.5459,2.5448,2.5391,2.5394,2.5385,2.536,2.5346,2.5327,2.5322,2.5328,2.5317,2.5336,2.5304,2.5342,2.5299,2.533,2.5319,2.5319,2.5316,2.5313,2.5356,2.5291,2.5183,2.5173,2.5313,2.5314,2.5315,0,2.5379,2.5349,2.5312,2.5308,2.531,2.5291,2.5291,2.5288,2.5277,2.5265,2.5258,2.5242,2.5232,2.5219,2.5232,2.5259,2.5187,2.5226,2.519,2.519,2.5173,2.5173,2.5062,2.5166,2.5166,2.5166,2.5167,0,2.5287,2.5251,2.5277,2.5254,2.5215,2.5237,2.5197,2.5201,2.5199,2.5177,2.5203,2.5182,2.5201,2.5181,2.5192,2.5155,2.515,2.5153,2.5156,2.5151,2.515,2.5143,2.5148,2.5164,2.5164,2.5165,2.5165,0,2.519,2.5206,2.5168,2.5174,2.5175,2.5146,2.5152,2.513,2.5139,2.5111,2.5105,2.5118,2.5096,2.5109,2.5086,2.5093,2.5045,2.5055,2.5048,2.505,2.5014,2.5018,2.4894,2.4879,2.4993,2.4991,2.4991,0,2.513,2.5104,2.5109,2.5098,2.5097,2.5077,2.5067,2.5088,2.5077,2.5071,2.505,2.5032,2.5018,2.4982,2.4988,2.4971,2.4981,2.4939,2.4978,2.4974,2.4981,2.4982,2.498,2.493,2.4929,2.4928,2.4927,0,2.5023,2.5033,2.5019,2.5008,2.4996,2.4987,2.4981,2.497,2.4991,2.4977,2.4957,2.4946,2.4925,2.4906,2.4893,2.4892,2.4913,2.4915,2.4906,2.49,2.4897,2.4899,2.5026,2.4917,2.4918,2.4919,2.492,2.492,2.4943,2.4923,2.4924,2.4908,2.4906,2.49,2.4882,2.4889,2.4873,2.4859,2.4873,2.4849,2.4846,2.4831,2.4827,2.4808,2.4825,2.4812,2.4808,2.4805,2.48,2.4901,2.4806,2.4806,2.4806,2.4807,2.4807,0,2.4838,2.4842,2.4827,2.4819,2.4806,2.483,2.4825,2.4813,2.4792,2.4789,2.4776,2.4754,2.4737,2.4743,2.4728,2.4712,2.4721,2.4707,2.4708,2.4708,2.4786,2.4795,2.47,2.47,2.47,2.47,2.47,2.47,2.4782,2.4749,2.4759,2.4726,2.4729,2.4708,2.4703,2.4698,2.4696,2.4671,2.4658,2.4663,2.4664,2.465,2.4635,2.4638,2.4631,2.4613,2.4619,2.4691,2.4702,2.4712,2.4721,2.4611,2.4611,2.4542,2.4542,2.4541]}]]